Theta_e
309 309 309 309 309 308 307 306 303 303 304 304 306 308 305 303 302 301 299 306 298 293 294 298 299 295 296 297 293 298 296 298 295 291 292 291 289 291 291 294 292 291 289 288 289 285 283 302 299 291 299 303 302 302
309 308 308 309 309 308 307 305 303 303 304 304 304 308 306 303 302 302 296 304 303 294 294 302 301 302 301 301 298 298 297 295 296 293 295 293 290 292 291 287 297 290 295 290 292 292 301 303 302 304 304 302 301 299
309 309 308 308 308 308 307 305 303 303 304 303 304 307 307 303 302 302 298 301 299 293 295 299 299 304 305 305 306 295 298 300 298 303 298 295 289 293 289 290 292 296 299 295 293 297 298 299 301 302 301 301 300 300
308 308 308 308 308 307 307 305 303 303 304 303 304 306 307 303 301 302 299 302 299 294 290 297 305 301 307 307 305 305 302 302 303 301 295 293 291 297 292 293 292 294 297 290 292 296 297 298 300 300 300 302 300 300
307 308 308 308 308 307 307 305 304 303 303 303 305 305 307 302 302 302 301 302 301 294 290 293 300 304 307 306 304 305 302 300 296 294 294 292 297 296 297 296 292 292 290 287 286 293 292 294 297 298 297 299 299 298
307 307 307 308 308 308 307 305 304 303 303 304 305 305 305 301 300 298 293 301 302 300 292 288 302 303 305 305 302 300 301 299 297 294 294 298 299 294 290 291 294 295 297 295 289 293 293 295 297 301 299 298 299 296
307 307 307 308 308 308 307 305 304 303 303 303 304 304 301 300 299 294 294 296 303 302 292 289 295 301 303 302 302 301 301 297 295 294 293 295 298 294 290 287 292 296 294 292 295 296 293 297 297 300 300 298 298 295
306 306 307 307 307 307 306 305 304 303 303 303 303 301 300 299 297 294 298 302 303 297 295 287 291 297 304 298 297 304 297 295 293 293 296 293 294 295 290 293 294 293 291 293 293 296 298 301 299 299 297 296 293 292
306 306 306 307 307 307 305 304 304 303 303 303 301 299 298 295 293 298 303 303 302 296 289 289 291 291 301 298 300 301 302 292 297 291 295 293 294 291 292 291 291 290 290 290 294 297 300 297 298 296 295 293 291 290
305 306 306 306 307 306 305 304 303 303 304 301 299 295 291 297 303 303 297 292 291 292 293 291 297 292 300 297 295 297 300 295 291 293 295 290 292 295 295 295 292 291 292 294 293 295 297 295 297 294 293 293 292 291
305 305 306 306 307 306 304 303 303 303 300 296 292 292 297 300 300 296 291 289 289 288 293 294 295 294 300 292 293 297 294 295 290 290 290 291 290 292 296 294 292 293 294 296 299 301 300 298 296 294 293 293 292 291
305 305 306 306 306 305 304 303 301 299 296 296 297 299 297 294 292 288 288 292 291 289 295 294 295 297 297 302 297 298 291 293 287 294 291 289 290 294 295 291 292 293 295 297 300 300 300 298 298 295 293 292 291 291
305 305 305 306 306 304 304 302 300 298 298 298 294 292 291 290 284 284 283 287 289 294 296 295 293 296 297 300 296 294 289 290 299 293 288 289 292 294 293 292 292 294 295 296 298 300 300 298 297 296 293 292 292 291
304 305 305 306 304 304 304 301 299 299 298 291 289 284 285 286 288 290 292 293 296 296 295 296 296 295 296 294 295 288 293 295 289 287 286 291 292 292 293 293 292 292 293 295 298 299 299 297 296 297 295 294 291 289
304 305 305 304 304 304 302 300 300 299 295 291 291 284 286 292 295 297 297 295 296 299 297 295 296 297 295 291 292 290 288 284 286 284 288 292 292 291 292 293 292 291 292 294 297 299 299 299 297 296 297 296 295 291
304 304 303 304 303 302 301 299 296 296 293 292 291 289 292 292 292 293 293 294 298 299 298 299 293 291 286 290 286 286 285 282 285 289 292 292 292 291 292 293 293 293 292 294 296 298 299 299 298 297 298 297 296 294
303 300 303 302 301 300 298 294 293 290 291 290 290 294 293 294 293 294 295 297 301 296 294 296 288 287 293 286 282 287 285 287 292 292 291 291 291 291 292 293 293 293 292 293 294 297 298 300 300 299 297 297 297 296
300 302 302 300 297 296 294 295 292 290 287 291 289 292 294 296 295 296 299 301 297 297 296 292 296 290 287 278 287 290 291 294 293 291 291 291 292 292 292 293 294 295 293 291 293 296 297 298 298 298 300 298 297 296
301 300 299 298 298 295 292 292 295 287 290 292 293 294 295 297 299 299 300 302 302 301 297 295 290 291 292 295 293 293 294 294 291 290 291 292 293 292 292 295 295 295 294 291 290 291 293 296 297 298 298 298 296 296
300 298 299 299 299 294 290 291 297 293 290 292 294 294 296 295 297 298 299 299 298 297 292 291 292 295 294 294 295 297 295 295 291 289 289 291 293 293 292 293 293 295 294 294 294 290 290 291 294 296 296 299 295 294
297 297 298 298 296 296 295 293 292 294 294 292 295 296 294 297 296 296 296 299 295 295 292 295 294 295 297 297 297 298 295 294 291 291 291 292 296 296 294 294 295 294 292 290 290 291 291 289 290 294 297 300 298 296
295 297 294 295 294 294 294 296 294 296 294 295 295 296 294 293 294 295 297 293 294 295 297 295 295 295 295 295 295 297 295 295 295 296 289 294 293 294 295 295 295 293 292 290 289 289 290 292 291 292 296 298 299 297
297 296 295 295 290 291 290 297 292 294 290 292 294 291 292 294 295 297 293 295 295 298 297 297 296 297 295 295 296 296 296 296 296 294 294 294 294 294 294 295 294 292 292 293 292 291 291 290 292 290 293 297 299 298
296 293 290 290 291 288 293 291 294 293 293 291 290 288 290 292 295 292 290 292 295 296 296 296 296 294 294 293 293 294 296 298 296 294 294 294 293 293 294 294 294 293 294 294 294 294 294 294 291 293 290 292 295 297
289 287 289 285 292 289 288 288 289 290 288 290 289 290 292 294 290 289 289 293 294 295 296 296 296 295 294 293 292 292 296 297 295 293 293 293 293 294 293 294 294 292 294 293 292 292 293 294 294 293 292 289 290 293
284 288 287 288 288 288 289 286 287 288 289 288 289 292 294 291 287 286 292 295 295 297 297 296 296 295 295 295 293 293 293 297 297 293 292 292 291 291 290 290 290 290 293 293 292 291 291 292 293 293 292 291 287 289
283 285 291 295 293 292 290 292 293 291 288 287 291 289 289 285 285 290 298 298 298 298 299 299 298 296 294 294 294 294 295 296 294 292 293 293 292 292 291 289 288 288 292 292 292 291 290 291 291 292 292 293 292 289
289 289 286 289 291 293 288 290 289 288 290 293 292 287 286 286 287 292 294 296 297 298 299 298 299 297 295 294 294 294 293 294 293 294 293 293 293 292 292 292 292 285 291 292 291 292 290 291 291 291 292 292 292 292
288 293 291 288 288 290 290 290 290 293 296 295 291 290 289 288 290 294 295 296 298 297 295 295 294 295 294 294 294 294 294 295 292 289 288 289 289 289 291 291 291 291 292 292 284 286 289 289 291 291 292 292 292 291
289 293 289 288 287 287 292 295 293 296 297 296 293 291 289 290 294 297 296 295 294 294 294 294 294 293 292 291 290 291 293 293 292 291 288 287 288 289 289 289 289 290 291 291 291 291 286 289 289 291 290 290 289 288
292 291 289 289 288 291 292 294 295 295 295 294 295 290 287 288 291 294 295 296 296 296 294 293 293 293 292 292 291 290 289 291 290 288 288 290 290 289 288 288 289 289 289 290 290 289 287 287 287 286 286 286 286 285
290 288 288 286 287 292 293 291 290 290 290 290 290 290 289 288 285 290 294 295 294 293 289 292 292 292 293 293 292 291 287 291 290 288 286 287 287 286 287 287 287 288 288 288 288 288 286 283 282 282 282 282 282 281
288 289 289 288 287 287 289 289 288 286 287 287 287 288 288 287 283 288 293 294 294 293 292 293 293 293 292 292 291 290 288 287 282 280 280 279 279 280 284 285 285 286 286 286 286 286 285 282 281 280 280 280 280 280
Wind_Speed
18 19 20 20 20 19 18 17 15 13 14 13 15 11 7 5 5 4 6 2 6 5 12 15 10 9 7 7 7 9 6 4 3 4 2 3 4 6 7 9 9 4 4 5 7 7 8 9 14 6 15 21 21 23
17 18 19 20 20 20 18 19 17 15 14 13 15 14 9 7 6 4 5 3 3 5 9 15 14 15 12 11 8 5 5 4 4 4 3 4 2 5 6 6 5 4 1 4 5 6 20 18 16 19 18 18 22 18
16 16 17 19 20 20 20 21 20 18 16 14 15 17 11 8 7 6 6 3 3 5 9 10 7 10 9 10 8 5 7 5 3 8 4 3 5 4 4 6 10 7 10 7 11 3 20 20 20 16 19 22 21 22
14 15 15 16 18 19 20 22 21 18 16 15 15 16 11 9 8 8 6 5 3 5 6 2 6 5 7 8 10 11 7 5 7 4 1 4 4 4 5 7 11 8 13 10 12 16 23 11 18 18 21 25 28 26
13 14 14 15 16 19 21 22 20 18 16 16 15 14 13 10 8 6 6 7 5 4 6 9 15 15 8 8 8 9 8 8 5 3 3 3 6 6 5 8 3 3 4 4 6 19 17 21 20 26 29 27 26 20
13 14 14 14 15 17 20 21 20 18 17 17 16 16 12 9 4 3 3 5 7 5 4 5 6 7 9 8 7 7 6 4 6 2 4 4 2 1 4 4 5 13 13 11 6 15 19 24 26 26 22 27 20 19
14 14 14 14 15 16 19 21 21 18 17 16 13 12 14 10 4 4 4 2 3 5 3 6 5 9 8 5 6 5 6 3 3 1 4 5 2 2 2 3 15 18 16 17 18 17 18 16 21 20 23 24 19 18
14 14 14 14 14 15 19 22 21 18 15 13 9 14 12 6 2 5 8 10 3 3 2 4 6 7 9 6 7 6 5 4 5 3 3 3 0 5 4 10 18 17 17 15 15 20 21 22 21 21 23 20 20 17
14 14 14 14 14 15 20 22 20 17 14 10 15 13 4 3 4 2 3 14 5 2 3 4 6 2 7 8 4 8 6 4 4 5 3 3 4 2 8 11 13 13 12 18 20 21 21 19 20 20 23 18 17 17
14 14 14 13 13 15 22 21 19 16 15 19 6 3 3 3 6 15 5 4 3 4 5 6 10 6 0 4 5 2 5 4 6 2 4 3 3 3 8 9 8 13 15 16 18 18 22 23 21 20 21 18 14 17
14 15 14 13 13 19 23 22 18 18 13 2 3 3 1 3 4 3 3 5 4 4 5 6 9 7 3 5 4 5 3 3 2 3 2 4 3 9 12 14 13 14 15 16 17 19 19 21 14 19 21 18 16 16
15 15 14 14 14 23 24 21 26 7 3 5 4 3 0 2 3 4 4 5 7 5 7 8 4 4 2 1 0 1 3 4 1 4 4 3 5 11 14 16 17 16 17 18 18 19 19 22 19 18 20 18 18 17
14 14 13 13 21 25 23 27 17 22 12 4 2 4 4 4 6 6 7 4 5 6 6 6 6 4 4 3 4 2 4 2 2 3 3 4 8 11 13 14 17 16 17 18 18 19 17 19 21 20 20 19 20 17
13 12 12 17 25 25 25 27 28 17 3 3 5 6 6 6 6 7 7 2 5 2 5 4 3 2 1 1 2 2 3 3 3 2 4 6 10 12 13 13 14 17 17 17 17 18 18 17 19 18 20 17 17 19
11 11 15 23 25 25 29 29 22 2 3 4 5 5 8 7 10 7 1 3 3 2 3 4 3 4 0 1 2 3 3 2 2 4 4 6 9 11 14 13 14 14 15 16 16 16 17 16 16 16 17 18 15 18
11 15 7 25 28 29 28 21 4 1 2 2 5 4 5 6 5 4 5 5 3 2 2 3 3 4 2 2 4 1 3 2 3 1 4 6 9 10 12 13 13 13 14 15 15 16 15 15 14 14 16 17 18 17
12 1 26 31 30 28 21 5 3 4 4 4 5 7 8 7 5 5 3 3 2 5 4 1 3 1 3 1 1 2 1 1 5 5 3 6 9 11 12 12 13 12 13 15 15 16 15 15 15 15 15 17 17 17
4 20 34 34 23 12 2 2 4 5 6 6 3 7 6 5 3 4 2 1 4 3 1 0 2 5 4 2 3 3 2 1 2 4 5 7 8 9 9 11 12 12 10 14 15 15 16 17 15 12 17 14 14 14
19 23 34 28 10 5 4 4 4 5 5 4 7 5 6 3 5 5 3 2 3 3 1 3 2 1 2 2 5 6 4 4 4 3 3 4 5 8 9 11 10 11 10 10 12 10 11 15 13 11 13 11 10 10
31 32 28 17 2 3 5 4 4 3 5 6 6 7 6 5 4 4 3 3 4 3 3 2 3 2 5 6 4 2 6 4 2 3 4 5 5 6 7 8 8 11 9 12 9 9 10 11 12 12 12 11 11 11
20 15 12 2 1 3 4 4 4 4 4 5 8 7 5 5 5 5 4 3 4 1 3 2 6 7 6 5 5 4 6 4 3 2 3 4 3 5 5 5 8 8 9 9 10 11 10 9 11 13 11 12 10 11
7 10 3 0 1 3 3 4 3 3 3 4 8 7 6 6 5 3 4 4 1 2 1 5 7 6 6 6 5 7 6 4 1 4 9 4 6 7 6 6 7 8 8 9 9 10 10 9 8 12 12 12 10 10
12 2 3 3 2 2 3 5 6 5 5 9 8 5 4 3 4 4 2 2 3 3 4 7 9 7 7 7 7 7 6 3 3 5 4 5 6 6 6 7 8 10 10 9 8 8 9 12 9 9 12 12 12 10
4 3 3 5 5 4 5 6 4 3 4 6 7 5 5 4 5 4 3 4 4 6 6 9 8 7 6 7 5 5 4 2 3 5 5 6 5 6 6 6 8 8 9 9 9 9 9 11 11 10 8 12 13 13
4 3 3 3 4 6 7 7 6 5 6 7 9 5 4 4 5 5 5 6 7 7 8 8 7 7 6 6 6 6 1 3 3 4 5 5 6 5 6 6 7 10 9 10 11 12 12 12 12 13 12 10 13 15
2 5 7 5 5 6 6 7 8 8 5 5 5 5 4 4 5 4 2 7 7 8 8 7 6 5 5 4 5 5 4 2 1 4 5 6 6 6 7 7 8 9 10 10 11 13 14 13 14 17 14 14 10 12
3 4 4 3 3 3 3 2 4 6 7 5 5 6 5 5 6 4 2 3 5 7 7 6 5 5 6 5 6 4 4 2 5 5 4 5 6 6 6 7 9 9 9 11 12 12 14 14 14 14 14 12 10 8
1 3 6 5 4 2 3 5 5 7 5 4 6 7 6 3 4 3 3 4 6 7 7 6 5 6 6 6 6 5 5 5 5 3 4 6 4 6 7 6 6 6 7 7 10 11 13 12 13 13 14 13 12 12
3 2 7 7 5 4 5 4 3 2 2 4 6 3 5 4 0 3 7 7 8 7 8 8 8 7 6 6 5 5 4 4 4 4 3 4 5 5 6 7 7 7 7 9 4 6 13 13 10 12 14 11 11 11
5 5 3 5 5 3 2 3 3 4 5 7 6 9 8 5 2 2 6 6 6 7 7 8 7 7 7 7 7 6 5 5 5 4 3 4 4 5 6 7 8 8 8 9 10 11 10 12 10 11 12 11 11 11
4 3 3 4 3 3 6 6 6 6 5 7 9 9 8 5 4 5 1 3 5 6 7 8 7 6 5 5 6 7 7 6 7 7 6 2 4 5 6 6 6 7 7 9 9 10 12 12 12 13 14 16 17 14
3 5 4 4 3 4 6 3 3 3 4 7 6 7 5 5 4 3 5 3 3 5 4 3 6 5 5 7 7 6 8 7 7 7 8 6 6 7 7 6 7 7 7 7 7 8 11 12 11 13 13 16 16 16
2 3 1 4 3 3 3 3 3 3 2 2 4 5 5 3 4 3 3 6 6 3 4 5 6 5 8 8 8 6 8 9 10 8 8 7 7 8 7 7 8 8 8 8 8 9 10 11 11 13 13 14 15 16
Wind_Direction
251 248 245 239 226 217 210 203 210 231 247 259 278 250 226 246 276 291 304 172 284 273 290 289 273 274 274 239 287 33 255 192 238 263 275 321 339 308 294 298 284 230 241 213 246 241 258 16 346 307 321 315 321 321
255 253 250 244 233 219 205 197 204 222 239 255 272 266 216 215 253 260 276 157 255 256 283 314 287 274 267 283 305 294 329 5 356 307 354 331 323 280 337 292 326 308 345 274 268 299 316 324 325 318 321 306 309 302
260 260 254 246 237 221 205 199 202 216 231 243 260 277 219 195 235 237 283 308 257 270 273 226 229 203 223 232 239 267 21 11 12 348 340 310 274 238 272 253 305 299 313 279 319 266 322 330 308 320 320 317 317 305
263 261 259 254 236 222 208 199 204 215 225 235 254 272 216 188 230 246 259 263 246 287 278 98 138 204 192 203 212 230 264 315 308 316 324 261 255 287 292 305 300 358 327 352 292 291 330 303 326 319 310 314 314 312
262 261 257 255 242 223 212 200 202 210 218 230 247 259 223 174 231 264 267 253 233 274 319 316 313 253 191 199 213 215 237 263 267 272 239 267 293 292 280 270 58 6 349 311 286 308 294 295 301 297 293 309 312 314
258 259 257 253 247 229 211 197 196 202 212 228 240 255 189 160 167 253 262 203 190 195 272 288 355 192 187 209 213 219 216 223 270 272 291 284 205 319 305 291 75 338 344 349 291 289 287 282 282 284 319 317 310 314
261 257 256 254 248 231 207 193 190 194 213 232 252 272 140 150 168 211 331 340 232 186 254 276 260 183 191 229 171 177 139 155 214 279 245 257 234 194 253 277 338 340 338 319 302 309 307 305 313 325 330 320 311 310
256 258 255 251 245 232 198 186 187 191 210 227 240 137 131 138 251 262 242 201 247 243 242 271 269 203 179 250 181 161 164 158 189 243 235 235 53 219 230 340 342 337 320 302 310 308 300 306 323 333 324 321 319 314
253 258 258 252 242 221 187 182 182 188 206 187 133 133 131 207 218 235 121 153 195 282 264 238 264 149 192 240 227 178 172 198 155 219 215 162 224 67 346 325 329 326 316 304 308 307 309 326 335 337 323 326 325 324
251 254 252 249 238 204 178 176 174 188 165 139 161 174 216 202 127 124 152 155 188 214 226 256 269 272 256 320 276 249 164 223 189 156 113 225 72 106 352 358 338 320 310 311 317 321 335 339 345 341 330 326 323 323
247 249 246 241 229 183 167 164 175 144 118 170 166 213 59 332 209 216 217 200 171 221 216 238 251 296 101 302 320 360 26 276 272 100 234 193 119 358 352 359 341 325 327 321 315 323 345 341 352 338 333 336 333 329
243 241 236 227 205 167 161 165 145 128 137 132 109 78 80 221 205 239 222 193 205 236 171 220 194 227 87 21 327 206 246 220 272 184 227 133 37 356 358 348 340 338 332 331 334 336 346 353 357 350 340 339 340 335
239 237 228 218 174 161 159 153 143 122 126 133 163 179 202 161 216 225 206 195 218 177 168 194 192 195 157 190 216 236 245 240 255 215 71 60 18 356 351 341 340 340 343 336 338 337 353 359 358 354 340 344 343 344
234 231 218 184 161 157 154 145 141 139 128 176 171 180 226 179 230 220 257 231 85 152 166 206 174 139 105 86 319 292 288 331 275 188 72 44 10 343 341 339 340 343 340 334 337 339 350 5 357 351 350 344 348 345
225 218 181 157 153 149 142 146 142 117 186 189 202 207 210 243 262 204 102 97 134 101 193 187 116 105 11 275 284 302 236 162 349 38 359 359 347 344 335 335 344 339 339 334 337 340 348 354 3 346 354 350 351 350
199 154 148 147 140 138 141 134 79 240 216 239 227 232 234 229 212 188 206 133 165 162 208 264 155 132 150 255 245 262 290 54 66 284 4 343 343 346 332 332 340 338 341 332 338 339 347 349 1 355 351 355 354 356
129 140 141 133 130 124 113 99 153 198 216 220 213 229 267 236 186 187 198 145 139 245 236 91 199 139 142 56 125 275 352 46 278 33 10 358 337 340 332 333 337 338 346 341 339 344 345 354 354 353 1 1 359 356
94 136 131 125 119 104 89 152 181 185 217 221 204 223 221 264 154 131 113 112 239 232 219 253 72 192 176 178 120 167 138 327 41 35 354 7 335 338 335 333 335 344 357 348 345 345 346 351 357 354 344 17 355 360
140 135 130 130 131 125 137 175 225 216 212 173 230 186 211 128 40 79 105 157 340 22 160 211 111 142 133 22 77 80 80 35 27 351 313 323 360 348 329 338 339 345 352 356 345 349 343 346 349 352 337 9 0 4
133 129 130 134 143 141 144 158 198 209 185 208 206 189 175 171 143 163 151 175 177 188 177 218 43 89 98 88 90 116 74 79 32 7 19 348 20 357 352 342 339 347 355 352 348 13 354 355 350 342 335 350 10 4
113 124 99 68 129 258 213 159 181 211 190 185 190 170 137 172 171 179 154 173 214 319 134 103 103 90 106 116 65 67 85 76 67 24 352 342 335 51 42 7 356 8 9 3 352 350 0 0 344 331 334 347 14 17
107 105 108 200 147 210 228 195 200 196 197 174 166 179 167 189 170 163 115 212 137 106 137 134 114 145 141 116 97 65 93 102 165 211 221 229 19 18 33 27 16 12 22 17 0 354 348 351 358 344 341 337 1 28
98 154 139 140 129 157 223 174 199 195 176 173 181 171 155 172 89 140 213 123 125 188 162 117 135 145 113 117 123 118 115 117 26 49 18 29 49 30 26 30 35 13 4 22 15 358 350 341 11 12 348 349 351 8
195 107 152 172 189 178 175 184 188 198 189 170 178 186 154 125 145 236 197 140 125 171 140 148 152 143 146 162 134 117 114 169 93 72 23 12 26 39 27 32 45 27 2 359 7 1 6 4 357 12 14 359 355 349
145 149 171 203 209 170 170 162 181 196 183 180 185 136 144 156 198 219 204 141 169 170 153 185 172 175 161 117 122 116 111 31 49 74 42 35 8 22 28 26 46 42 1 1 2 0 5 2 8 10 10 19 1 350
141 167 194 177 169 172 175 164 188 196 167 176 177 126 148 186 198 223 160 140 168 167 169 185 172 159 134 129 121 108 97 77 283 85 49 36 34 16 17 18 15 26 358 5 359 356 1 1 4 5 8 11 22 0
151 201 183 265 181 144 95 141 178 191 180 178 152 152 195 169 208 87 143 118 140 148 173 171 163 145 131 126 110 111 102 86 42 63 59 52 53 33 19 18 21 9 336 6 358 2 0 353 0 2 360 4 20 19
245 174 153 164 116 108 155 185 169 190 194 154 159 184 184 187 78 32 69 122 137 172 150 141 128 115 120 121 127 121 111 114 135 186 164 127 94 50 21 18 34 281 320 12 0 2 2 352 358 358 356 356 5 7
180 206 142 146 105 216 218 200 200 121 29 185 175 101 95 67 180 214 127 151 173 146 145 134 113 110 124 118 99 88 63 39 54 84 77 60 32 23 15 9 5 1 1 351 100 29 8 338 352 354 355 359 11 356
153 142 124 154 166 197 106 51 80 69 57 79 99 103 93 103 139 153 134 141 145 150 142 128 152 165 148 139 116 98 82 65 59 75 52 46 10 5 5 1 360 355 357 351 353 1 10 343 8 4 4 5 10 356
125 128 157 157 138 100 100 103 101 82 71 79 96 112 121 116 61 20 47 151 144 145 146 152 168 149 152 149 144 158 125 107 93 66 16 41 44 17 4 351 356 350 349 354 358 9 5 357 7 360 358 0 2 358
166 193 171 131 124 96 66 58 22 89 103 126 122 116 130 122 100 92 356 339 157 138 72 170 148 131 102 77 76 68 45 79 67 51 26 18 23 8 347 359 350 346 345 355 10 18 17 8 0 358 356 357 356 354
127 137 123 114 126 136 134 133 112 103 94 81 75 74 68 78 89 77 46 10 343 104 137 95 100 94 87 85 90 93 74 83 88 87 77 53 28 356 337 7 348 344 351 2 9 6 28 16 6 3 1 359 357 356